Wind_Speed
22 23 24 25 24 15 14 13 12 11 11 10 9 9 8 8 8 7 7 7 7 6 6 6 5 4 3 2 2 3 4 5 7 7 7 8 8 7 7 7 7 7 7 7 6 6 6 5 5
22 22 26 26 16 14 14 13 13 13 12 11 10 10 9 9 8 8 7 7 7 7 6 6 5 3 3 2 2 2 3 4 5 5 6 7 7 7 7 6 7 7 6 6 6 6 5 5 5
25 26 28 18 12 13 14 14 14 13 13 12 12 11 10 9 9 9 8 8 7 6 6 5 4 3 2 2 2 2 3 3 4 5 5 6 6 7 7 6 6 6 6 6 6 6 5 5 5
25 29 23 13 13 14 15 15 15 14 14 14 13 12 12 11 10 9 9 8 7 7 6 5 5 4 3 1 1 1 2 3 4 5 5 6 6 5 6 6 5 6 6 5 5 5 5 4 4
26 25 16 13 14 15 15 14 14 15 15 15 14 13 13 12 12 11 10 9 8 7 6 6 5 4 3 2 1 0 2 3 3 4 5 5 5 5 5 5 5 5 5 5 5 5 5 5 5
24 18 12 12 14 15 15 14 14 16 16 16 15 14 14 13 12 11 11 10 8 7 6 5 4 3 2 1 1 1 2 3 3 3 4 4 4 5 5 5 5 5 5 5 5 5 5 4 5
19 14 11 12 12 14 14 13 14 15 16 16 17 16 15 15 13 12 12 11 10 8 7 6 4 3 2 2 1 1 2 3 3 4 4 3 4 4 4 4 4 5 6 6 5 5 5 5 5
13 13 11 9 10 12 13 13 14 15 16 17 17 17 17 16 15 13 12 12 11 10 8 7 5 3 3 2 2 2 2 3 3 4 4 3 3 4 4 3 4 4 5 5 5 5 5 4 5
10 11 9 8 9 11 11 13 15 16 17 18 18 17 17 17 16 15 14 13 12 11 9 8 7 5 2 1 1 1 2 2 3 4 4 4 4 4 4 4 4 4 5 5 5 5 5 5 5
8 10 7 7 8 10 12 14 16 17 18 18 18 18 18 18 17 16 16 14 13 12 11 10 8 6 3 1 1 1 1 2 3 3 4 3 3 3 4 4 5 5 5 5 5 5 5 5 5
5 6 6 7 7 10 12 14 15 16 18 19 19 18 18 19 19 18 17 16 15 13 12 11 10 8 5 2 2 1 1 1 1 2 3 2 2 3 4 4 4 4 5 5 4 4 5 5 5
4 5 6 6 7 9 10 11 12 14 17 18 19 19 19 19 19 19 19 18 16 14 12 12 11 10 8 5 4 2 1 1 1 2 2 2 2 3 4 4 4 4 4 4 4 4 4 4 4
2 3 4 5 7 7 8 10 12 15 16 17 19 19 19 20 20 19 19 18 17 14 13 12 11 10 9 7 4 4 2 1 1 1 2 1 2 2 3 3 3 4 4 4 3 3 4 4 4
2 2 3 5 6 6 6 9 13 16 16 17 18 19 20 20 20 19 18 18 17 15 13 12 11 11 9 8 5 4 2 2 1 1 1 1 1 1 2 2 3 2 3 3 3 3 3 3 3
3 1 2 4 6 9 7 7 10 14 16 17 18 19 20 20 20 20 18 18 17 15 13 13 12 11 10 9 7 5 3 2 2 1 0 1 1 1 2 1 2 2 3 3 3 3 3 3 3
1 2 2 2 6 8 10 10 11 13 15 17 18 19 20 20 20 19 19 18 17 15 14 13 13 12 11 9 8 6 4 3 2 1 1 1 1 1 2 2 2 2 2 3 3 3 3 3 3
2 5 4 5 7 6 10 11 12 12 14 15 17 18 19 19 19 19 19 18 17 16 15 14 12 11 11 9 9 8 6 4 2 1 1 1 2 2 2 3 3 2 2 2 2 3 4 4 4
5 6 5 5 7 5 7 10 10 11 14 14 16 17 17 18 19 19 18 18 17 16 15 14 12 11 11 9 9 9 6 4 3 2 2 2 2 2 2 3 3 3 3 3 3 4 4 4 5
8 6 5 6 7 5 6 7 10 11 12 13 14 15 16 17 18 19 18 18 17 16 16 15 12 11 11 10 8 9 7 5 4 3 2 2 2 2 3 3 3 4 5 5 5 5 5 5 6
9 7 6 7 7 6 7 7 7 10 12 13 13 14 15 16 17 18 19 18 18 17 16 15 13 12 11 10 9 8 7 5 4 4 3 2 2 3 3 4 3 4 5 5 6 6 6 7 7
10 10 9 9 8 7 8 10 8 9 11 13 14 14 14 16 16 17 18 18 18 17 16 15 13 12 11 10 9 8 7 6 5 5 4 4 3 3 3 4 4 5 5 6 6 7 7 8 8
11 11 11 10 9 7 7 13 11 9 10 13 14 15 15 15 16 16 17 17 17 16 15 14 13 12 11 10 9 8 7 6 6 5 5 5 4 4 4 4 5 6 6 6 6 7 8 8 9
14 13 12 10 9 9 8 11 11 8 9 11 12 14 14 15 15 15 16 16 16 15 15 14 13 12 12 11 9 8 8 7 6 6 6 6 5 5 5 5 6 6 7 7 7 8 9 9 10
16 13 11 9 9 12 9 10 12 9 9 11 12 14 14 13 14 14 15 15 15 15 14 14 13 12 11 11 10 9 8 7 7 7 7 7 6 6 6 6 7 7 8 8 8 9 9 10 10
16 13 10 10 11 13 10 11 14 12 12 13 13 14 14 13 12 13 13 14 14 14 14 14 13 12 12 11 10 9 9 7 7 8 7 7 7 6 6 7 7 8 8 9 9 10 11 11 11
17 15 14 12 11 12 10 10 13 15 16 14 13 13 13 12 12 12 13 13 14 14 13 13 13 13 12 11 10 10 9 8 8 8 8 8 8 8 8 9 8 8 9 10 10 11 11 12 12
19 18 16 15 15 15 12 10 15 18 17 14 13 13 13 12 12 11 12 12 13 13 13 13 13 13 13 11 11 10 10 9 9 9 9 9 9 9 10 10 9 10 10 10 10 10 11 12 13
22 20 17 18 18 16 14 14 15 17 17 16 15 14 14 13 12 11 11 12 12 12 12 13 13 13 13 12 11 11 10 10 10 10 10 10 10 10 11 11 10 10 10 10 10 10 11 12 13
22 23 22 20 19 17 17 15 14 17 17 16 15 15 15 13 12 12 12 12 12 12 12 12 12 12 13 13 12 11 11 11 11 11 10 11 11 11 11 11 12 12 12 11 11 11 11 12 13
22 22 22 23 22 21 18 18 15 15 16 16 15 15 16 14 13 14 13 13 12 12 12 12 12 12 12 13 13 12 12 12 12 11 11 12 12 12 12 12 13 13 13 12 12 13 13 13 13
Wind_Direction
68 65 60 55 53 38 40 40 37 41 40 39 36 35 36 34 33 33 33 35 39 41 43 47 48 54 65 84 109 126 139 154 157 156 156 155 153 152 150 149 149 149 142 137 139 142 139 136 128
69 63 60 53 45 29 35 39 39 40 39 38 36 35 37 37 36 35 36 39 42 43 42 43 43 53 64 73 98 139 150 149 156 157 153 156 154 154 149 147 146 146 142 140 144 145 142 142 134
72 63 59 50 32 31 36 37 40 42 40 38 39 39 39 38 38 36 35 37 41 43 42 41 39 43 57 77 103 148 163 160 162 162 158 157 155 155 153 149 145 145 147 149 148 146 142 143 140
70 64 60 45 37 38 39 39 39 39 40 40 41 41 39 38 38 37 36 35 36 38 37 32 30 31 33 47 126 176 176 172 170 170 166 163 162 160 157 158 157 154 152 151 150 140 138 142 140
65 64 54 34 32 40 39 38 39 39 39 39 42 42 39 38 38 36 35 35 35 33 32 27 24 27 28 20 355 250 200 192 182 175 172 174 171 164 164 167 163 161 159 160 151 140 136 142 143
70 64 50 37 35 39 39 37 35 36 36 38 40 40 37 36 37 37 34 30 33 29 27 27 19 16 18 10 351 225 207 206 202 195 186 182 183 178 171 172 171 169 163 155 151 144 144 146 144
73 82 60 37 34 42 40 37 36 37 37 37 38 37 36 36 34 35 34 32 32 31 27 22 17 11 352 329 305 256 230 225 218 209 202 196 191 186 182 175 169 168 158 149 146 146 144 148 148
68 75 65 39 33 40 36 35 37 36 36 35 35 35 35 36 35 34 33 30 29 29 28 20 13 4 345 323 290 257 232 230 225 212 204 205 196 194 188 181 171 161 157 152 152 151 149 154 151
73 73 61 39 33 38 32 33 35 37 36 34 34 34 34 34 35 34 32 30 28 26 22 20 16 10 358 336 308 279 243 237 229 219 211 212 206 197 189 179 161 148 150 148 145 152 156 154 155
59 73 60 38 35 38 34 36 34 32 32 32 32 33 32 31 33 34 33 32 30 27 26 27 22 21 25 35 357 309 246 230 230 220 206 209 203 195 182 161 153 145 143 147 147 153 159 158 157
58 68 61 46 39 36 35 35 32 25 26 29 31 30 30 30 30 31 30 31 31 28 26 27 25 24 24 18 358 346 287 234 182 190 186 197 195 183 176 165 158 154 152 152 154 159 164 158 156
59 57 60 45 38 40 42 37 33 26 24 25 27 28 28 28 28 28 28 28 29 27 26 27 26 24 24 20 11 1 334 275 217 185 182 178 175 173 176 166 162 162 163 164 164 168 175 172 169
65 55 45 36 36 35 39 32 31 24 22 23 23 25 26 27 27 27 26 26 26 25 25 27 25 24 23 24 18 6 7 349 241 188 176 167 166 162 170 178 173 171 169 174 180 181 172 177 176
156 89 46 23 7 9 34 27 22 18 20 20 21 23 25 24 24 23 22 23 23 23 25 27 25 25 25 23 19 10 4 356 351 180 202 170 175 192 180 167 163 175 182 185 190 179 176 177 183
125 86 34 11 348 341 357 15 22 8 15 18 19 19 22 23 22 21 21 23 22 23 24 24 23 23 22 22 24 22 21 7 32 55 190 216 220 228 209 188 176 185 191 193 190 187 191 192 201
73 296 290 319 327 330 345 0 10 5 9 15 18 18 19 20 20 19 20 22 22 23 21 19 18 18 18 20 24 19 22 28 33 11 303 281 286 262 253 235 213 202 203 202 201 202 214 222 226
301 301 304 305 312 326 334 345 358 357 3 9 12 14 16 17 17 17 18 18 19 19 18 14 13 14 14 13 14 14 13 10 353 346 322 287 292 283 263 255 245 231 218 226 228 225 234 242 249
223 242 255 278 294 311 320 331 346 347 352 360 3 7 11 13 15 16 14 13 14 13 12 9 9 10 9 10 10 7 9 1 341 327 315 277 277 280 266 251 251 252 255 263 259 249 257 261 264
220 224 249 258 275 288 297 313 326 336 337 347 354 360 5 8 11 12 11 10 9 9 9 10 9 8 6 6 6 8 9 8 358 342 323 291 275 278 270 269 264 257 258 263 269 265 267 272 276
225 223 245 272 283 279 286 291 301 321 328 339 349 354 359 4 7 8 7 7 7 7 5 8 9 8 6 7 7 8 9 13 12 351 341 330 298 282 281 283 281 270 265 264 268 268 271 277 279
230 231 232 244 261 278 294 301 291 311 325 329 339 348 353 358 1 1 2 3 4 4 3 5 7 9 9 9 7 359 356 0 356 345 338 333 310 296 289 285 287 285 278 272 272 274 277 282 284
232 236 240 247 259 268 279 290 297 303 312 323 332 338 344 350 355 356 356 358 359 1 1 4 6 8 7 4 1 357 352 346 348 347 339 339 334 315 308 297 294 296 292 290 286 283 285 289 290
225 229 236 243 253 262 260 281 287 290 296 312 322 326 333 341 348 352 352 354 355 357 359 1 3 4 4 3 359 357 352 344 345 346 343 342 337 323 314 307 299 294 291 291 291 289 288 290 293
226 229 236 245 255 267 267 265 276 269 284 294 304 311 322 331 340 345 348 351 352 355 357 358 0 2 3 3 358 353 351 349 349 345 341 338 333 328 320 307 299 296 294 294 291 290 291 293 293
227 227 237 255 260 265 261 261 271 273 276 281 287 299 313 322 332 339 344 348 349 351 355 357 358 358 359 359 357 353 352 350 349 351 347 341 338 333 328 321 308 300 299 295 293 292 293 294 294
227 225 232 242 257 269 259 251 261 270 279 281 283 295 308 315 324 334 340 344 346 347 351 354 355 355 356 357 358 354 350 350 350 350 347 343 341 337 332 325 316 308 301 298 297 295 293 293 293
225 228 230 244 255 266 262 249 267 277 282 284 285 292 301 306 313 324 333 339 342 344 347 350 351 353 355 356 356 356 353 352 351 348 342 339 340 336 333 330 320 316 308 300 296 297 296 295 296
226 223 228 234 242 250 258 258 259 262 275 286 286 289 292 298 304 313 323 330 334 338 341 344 347 350 352 354 356 354 351 349 347 343 338 337 336 333 333 331 329 321 318 313 306 303 303 301 300
234 227 225 229 231 242 255 253 254 259 271 279 286 286 285 290 298 304 313 320 326 328 335 340 343 346 348 350 352 350 348 344 341 340 339 339 338 334 330 331 329 325 325 321 316 312 310 308 305
235 234 232 232 232 230 245 257 259 265 264 271 277 279 283 287 293 298 304 312 316 322 328 330 333 336 340 344 346 347 345 342 339 338 335 335 334 333 331 329 325 323 322 320 314 312 312 311 309
Height
5910 5908 5906 5905 5904 5907 5904 5903 5901 5899 5897 5896 5894 5893 5891 5891 5891 5892 5888 5887 5887 5886 5885 5885 5885 5886 5886 5886 5886 5886 5886 5886 5886 5886 5887 5887 5887 5888 5889 5890 5890 5891 5891 5892 5893 5893 5894 5894 5895
5913 5911 5908 5908 5911 5910 5907 5905 5903 5901 5900 5898 5896 5895 5893 5892 5891 5890 5888 5888 5888 5887 5887 5887 5886 5886 5887 5887 5887 5887 5887 5887 5887 5887 5888 5888 5888 5889 5890 5890 5891 5891 5892 5893 5893 5894 5894 5895 5896
5915 5912 5911 5916 5916 5913 5911 5908 5906 5904 5902 5900 5899 5897 5895 5894 5892 5891 5890 5889 5888 5888 5888 5887 5887 5887 5887 5887 5887 5888 5887 5888 5888 5888 5888 5889 5889 5890 5890 5891 5892 5892 5893 5894 5894 5895 5895 5896 5896
5916 5914 5919 5922 5918 5916 5913 5911 5908 5906 5904 5902 5901 5899 5897 5895 5894 5892 5891 5890 5889 5889 5888 5888 5888 5888 5888 5888 5888 5888 5888 5888 5889 5889 5889 5890 5890 5891 5891 5891 5892 5893 5893 5894 5895 5895 5896 5897 5897
5918 5920 5925 5924 5920 5918 5916 5913 5911 5909 5906 5905 5903 5901 5899 5897 5895 5893 5892 5891 5890 5890 5889 5889 5889 5889 5889 5889 5889 5889 5889 5889 5889 5889 5890 5890 5891 5891 5892 5892 5893 5893 5894 5894 5895 5896 5897 5897 5898
5921 5926 5930 5926 5924 5922 5919 5917 5914 5912 5909 5907 5905 5903 5901 5899 5897 5895 5894 5892 5891 5891 5890 5889 5889 5889 5889 5889 5889 5889 5889 5889 5890 5890 5891 5891 5892 5892 5892 5893 5893 5894 5894 5895 5896 5897 5897 5898 5898
5926 5930 5931 5929 5927 5925 5923 5920 5917 5914 5912 5910 5908 5906 5903 5901 5898 5897 5895 5893 5892 5892 5891 5890 5890 5889 5889 5889 5889 5889 5889 5890 5890 5890 5891 5892 5892 5893 5893 5893 5893 5894 5895 5896 5896 5897 5898 5898 5899
5932 5933 5932 5932 5930 5927 5925 5922 5920 5917 5915 5913 5910 5908 5905 5903 5900 5898 5896 5894 5893 5892 5892 5891 5890 5890 5890 5889 5889 5889 5890 5890 5890 5891 5891 5892 5892 5893 5893 5893 5894 5895 5895 5896 5897 5898 5898 5899 5900
5934 5937 5936 5935 5932 5930 5927 5924 5922 5919 5917 5915 5913 5910 5908 5905 5902 5900 5898 5896 5895 5894 5892 5891 5891 5890 5890 5890 5889 5889 5890 5890 5890 5891 5892 5892 5892 5892 5893 5894 5894 5895 5896 5897 5897 5898 5899 5900 5900
5937 5938 5939 5937 5934 5932 5929 5926 5924 5921 5919 5917 5915 5912 5910 5907 5904 5902 5900 5898 5896 5895 5893 5892 5892 5891 5890 5890 5890 5890 5889 5889 5890 5891 5892 5892 5892 5893 5893 5894 5895 5896 5896 5897 5898 5898 5899 5900 5900
5941 5940 5939 5938 5936 5934 5931 5929 5927 5924 5922 5920 5917 5914 5912 5909 5906 5904 5902 5900 5898 5896 5895 5894 5893 5892 5891 5891 5890 5890 5890 5889 5890 5891 5892 5892 5893 5893 5894 5894 5895 5896 5897 5898 5898 5899 5899 5900 5901
5943 5941 5941 5939 5938 5936 5934 5932 5930 5928 5925 5922 5919 5916 5914 5911 5908 5906 5904 5902 5900 5898 5897 5895 5894 5893 5892 5891 5891 5891 5891 5891 5891 5892 5893 5893 5893 5894 5895 5895 5896 5897 5897 5898 5899 5899 5900 5901 5901
5944 5943 5942 5941 5939 5937 5935 5933 5931 5929 5927 5924 5921 5918 5915 5913 5910 5908 5906 5904 5902 5900 5898 5897 5896 5895 5893 5893 5892 5892 5892 5892 5892 5893 5893 5893 5894 5895 5895 5896 5897 5897 5898 5899 5899 5900 5900 5901 5902
5943 5944 5943 5942 5940 5937 5936 5934 5933 5931 5929 5926 5923 5920 5917 5915 5912 5910 5907 5905 5903 5901 5900 5899 5897 5896 5895 5894 5894 5893 5893 5893 5893 5893 5894 5894 5895 5895 5896 5897 5897 5898 5898 5899 5900 5900 5901 5902 5902
5943 5944 5943 5943 5942 5940 5937 5935 5933 5933 5930 5928 5925 5922 5919 5917 5915 5912 5909 5907 5905 5903 5902 5900 5899 5898 5896 5895 5894 5894 5894 5894 5894 5894 5894 5895 5895 5896 5896 5897 5898 5898 5899 5899 5900 5900 5901 5902 5902
5944 5945 5944 5945 5943 5941 5940 5937 5935 5934 5932 5929 5926 5924 5921 5919 5916 5914 5911 5909 5907 5905 5903 5902 5900 5899 5898 5897 5896 5895 5894 5894 5894 5895 5895 5895 5895 5896 5896 5897 5898 5898 5899 5899 5900 5900 5901 5902 5902
5945 5945 5945 5946 5944 5943 5940 5939 5936 5935 5933 5931 5928 5926 5923 5921 5918 5916 5913 5911 5909 5907 5905 5903 5902 5900 5899 5898 5897 5896 5896 5895 5895 5895 5895 5895 5896 5896 5896 5897 5898 5898 5899 5899 5900 5900 5901 5901 5902
5945 5947 5947 5948 5945 5944 5943 5941 5939 5937 5935 5933 5930 5927 5925 5923 5920 5917 5915 5913 5911 5909 5906 5904 5903 5901 5900 5899 5898 5897 5896 5896 5895 5895 5895 5895 5896 5896 5896 5897 5897 5898 5899 5899 5899 5900 5900 5901 5901
5943 5945 5946 5947 5945 5945 5944 5942 5940 5938 5936 5934 5931 5928 5926 5924 5921 5919 5916 5914 5912 5910 5908 5905 5903 5902 5901 5899 5898 5898 5897 5896 5896 5895 5895 5895 5896 5896 5896 5896 5897 5897 5898 5898 5899 5899 5899 5900 5900
5942 5944 5946 5945 5945 5944 5943 5941 5940 5939 5937 5934 5932 5929 5927 5925 5923 5920 5918 5915 5913 5911 5908 5906 5904 5903 5901 5900 5899 5898 5897 5897 5896 5896 5895 5895 5895 5895 5896 5896 5896 5896 5897 5897 5897 5898 5898 5898 5898
5940 5942 5943 5944 5943 5943 5942 5942 5939 5938 5936 5934 5932 5930 5928 5925 5923 5921 5919 5916 5914 5911 5909 5907 5905 5903 5902 5900 5899 5898 5898 5897 5897 5896 5896 5895 5895 5895 5895 5895 5895 5896 5896 5896 5896 5896 5896 5896 5897
5938 5940 5941 5941 5941 5942 5943 5941 5938 5937 5936 5934 5932 5930 5928 5926 5924 5922 5919 5917 5915 5912 5910 5908 5906 5904 5902 5901 5900 5899 5898 5897 5897 5896 5896 5895 5895 5895 5895 5894 5895 5895 5895 5895 5895 5895 5895 5895 5894
5935 5937 5938 5939 5939 5940 5941 5940 5938 5936 5934 5934 5933 5930 5928 5926 5924 5922 5920 5918 5915 5913 5911 5908 5907 5905 5903 5901 5900 5899 5898 5897 5896 5896 5896 5895 5895 5894 5894 5894 5893 5893 5893 5893 5893 5893 5893 5893 5892
5931 5933 5935 5936 5937 5938 5939 5939 5937 5933 5934 5933 5932 5930 5928 5926 5924 5922 5920 5918 5916 5914 5911 5909 5907 5905 5903 5902 5900 5899 5898 5897 5896 5896 5895 5895 5894 5893 5893 5892 5892 5892 5891 5891 5891 5891 5890 5890 5890
5928 5931 5933 5935 5936 5936 5936 5937 5935 5933 5933 5933 5931 5929 5927 5926 5924 5922 5920 5918 5916 5914 5912 5910 5908 5906 5904 5902 5900 5899 5898 5897 5896 5895 5895 5894 5893 5892 5892 5891 5890 5890 5889 5889 5889 5888 5888 5888 5887
5925 5928 5931 5933 5934 5934 5933 5935 5934 5932 5931 5930 5929 5927 5926 5924 5923 5921 5919 5917 5916 5914 5912 5910 5908 5906 5904 5902 5900 5899 5898 5897 5896 5895 5894 5894 5892 5892 5891 5890 5889 5888 5888 5887 5887 5886 5886 5885 5885
5921 5924 5928 5931 5931 5931 5931 5932 5931 5929 5928 5927 5926 5925 5924 5923 5921 5920 5918 5917 5915 5914 5912 5910 5908 5906 5904 5902 5901 5899 5898 5897 5896 5895 5894 5893 5892 5891 5890 5888 5887 5886 5886 5885 5884 5884 5883 5883 5882
5916 5920 5924 5926 5927 5929 5929 5929 5928 5925 5924 5925 5924 5923 5922 5921 5920 5918 5917 5916 5914 5913 5911 5910 5908 5906 5904 5903 5901 5899 5898 5897 5895 5894 5893 5892 5891 5889 5888 5887 5886 5885 5884 5883 5882 5881 5880 5880 5879
5912 5914 5917 5920 5922 5925 5925 5926 5922 5922 5921 5922 5921 5920 5919 5918 5918 5917 5916 5915 5913 5912 5910 5909 5907 5906 5904 5903 5901 5899 5898 5896 5895 5893 5892 5891 5889 5888 5887 5886 5884 5883 5882 5880 5880 5879 5878 5877 5876
5907 5910 5912 5915 5917 5919 5920 5922 5918 5919 5919 5919 5919 5917 5916 5915 5915 5915 5914 5913 5911 5910 5909 5908 5907 5905 5904 5902 5901 5899 5897 5896 5894 5892 5891 5889 5888 5886 5885 5884 5882 5881 5880 5878 5877 5876 5875 5874 5873